TimePDT,TemperatureF,Dew PointF,Humidity,Sea Level PressureIn,VisibilityMPH,Wind Direction,Wind SpeedMPH,Gust SpeedMPH,PrecipitationIn,Events,Conditions,WindDirDegrees,DateUTC
12:35 AM,59.0,41.0,51,29.95,10.0,West,13.8,-,N/A,,Clear,270,2013-09-25 07:35:00
12:55 AM,60.8,41.0,48,29.94,10.0,West,10.4,-,N/A,,Clear,270,2013-09-25 07:55:00
1:15 AM,59.0,42.8,55,29.94,10.0,West,16.1,-,N/A,,Clear,260,2013-09-25 08:15:00
1:35 AM,57.2,42.8,59,29.94,10.0,West,16.1,-,N/A,,Clear,270,2013-09-25 08:35:00
1:55 AM,57.2,42.8,59,29.93,10.0,West,19.6,-,N/A,,Clear,270,2013-09-25 08:55:00
2:35 AM,53.6,44.6,72,29.93,10.0,West,19.6,28.8,N/A,,Clear,260,2013-09-25 09:35:00
2:55 AM,50.0,44.6,82,29.93,10.0,NW,17.3,23.0,N/A,,Clear,310,2013-09-25 09:55:00
3:15 AM,51.8,44.6,76,29.92,10.0,NW,19.6,26.5,N/A,,Clear,320,2013-09-25 10:15:00
3:35 AM,51.8,44.6,76,29.92,10.0,West,10.4,-,N/A,,Clear,270,2013-09-25 10:35:00
3:55 AM,50.0,44.6,82,29.91,10.0,West,13.8,-,N/A,,Clear,270,2013-09-25 10:55:00
4:15 AM,50.0,44.6,82,29.91,9.0,West,15.0,-,N/A,,Scattered Clouds,280,2013-09-25 11:15:00
4:35 AM,48.2,44.6,87,29.92,8.0,NW,17.3,-,N/A,,Mostly Cloudy,310,2013-09-25 11:35:00
4:55 AM,48.2,44.6,87,29.92,8.0,WNW,16.1,-,N/A,,Overcast,300,2013-09-25 11:55:00
5:15 AM,48.2,44.6,87,29.92,8.0,WNW,15.0,25.3,N/A,,Overcast,300,2013-09-25 12:15:00
5:35 AM,48.2,44.6,87,29.92,8.0,West,17.3,24.2,N/A,,Overcast,270,2013-09-25 12:35:00
5:55 AM,48.2,44.6,87,29.91,8.0,West,18.4,21.9,N/A,,Overcast,280,2013-09-25 12:55:00
6:15 AM,48.2,42.8,82,29.91,8.0,WNW,17.3,20.7,N/A,,Mostly Cloudy,290,2013-09-25 13:15:00
6:35 AM,46.4,42.8,87,29.91,8.0,West,18.4,23.0,N/A,,Overcast,280,2013-09-25 13:35:00
6:55 AM,46.4,41.0,81,29.91,7.0,WNW,15.0,20.7,N/A,,Mostly Cloudy,300,2013-09-25 13:55:00
7:15 AM,46.4,41.0,81,29.91,7.0,WNW,13.8,-,N/A,,Clear,290,2013-09-25 14:15:00
7:35 AM,46.4,41.0,81,29.91,8.0,WNW,15.0,20.7,N/A,,Clear,290,2013-09-25 14:35:00
7:55 AM,48.2,41.0,76,29.91,9.0,WNW,13.8,20.7,N/A,,Clear,300,2013-09-25 14:55:00
8:15 AM,50.0,41.0,71,29.91,9.0,WNW,16.1,21.9,N/A,,Clear,290,2013-09-25 15:15:00
8:35 AM,50.0,41.0,71,29.91,9.0,WNW,18.4,-,N/A,,Clear,290,2013-09-25 15:35:00
8:55 AM,51.8,41.0,67,29.91,8.0,WNW,16.1,-,N/A,,Clear,290,2013-09-25 15:55:00
9:15 AM,51.8,41.0,67,29.91,9.0,WNW,15.0,23.0,N/A,,Clear,290,2013-09-25 16:15:00
9:35 AM,51.8,41.0,67,29.91,9.0,WNW,15.0,23.0,N/A,,Clear,300,2013-09-25 16:35:00
9:55 AM,53.6,41.0,62,29.91,9.0,WNW,13.8,24.2,N/A,,Partly Cloudy,300,2013-09-25 16:55:00
10:15 AM,53.6,41.0,62,29.91,8.0,WNW,18.4,25.3,N/A,,Partly Cloudy,290,2013-09-25 17:15:00
10:35 AM,53.6,41.0,62,29.91,9.0,NW,19.6,23.0,N/A,,Partly Cloudy,310,2013-09-25 17:35:00
11:15 AM,53.6,39.2,58,29.91,6.0,NW,24.2,28.8,N/A,,Haze,310,2013-09-25 18:15:00
11:55 AM,53.6,39.2,58,29.89,10.0,NNW,26.5,31.1,N/A,,Scattered Clouds,330,2013-09-25 18:55:00
12:15 PM,55.4,37.4,51,29.89,9.0,NW,25.3,32.2,N/A,,Partly Cloudy,320,2013-09-25 19:15:00
12:35 PM,55.4,37.4,51,29.88,10.0,NW,23.0,31.1,N/A,,Partly Cloudy,310,2013-09-25 19:35:00
12:55 PM,55.4,37.4,51,29.88,9.0,NW,21.9,32.2,N/A,,Clear,320,2013-09-25 19:55:00
1:15 PM,57.2,37.4,48,29.87,8.0,NW,24.2,31.1,N/A,,Clear,320,2013-09-25 20:15:00
1:35 PM,57.2,35.6,44,29.87,9.0,NW,21.9,29.9,N/A,,Clear,320,2013-09-25 20:35:00
1:55 PM,57.2,37.4,48,29.86,8.0,NW,26.5,31.1,N/A,,Clear,320,2013-09-25 20:55:00
2:15 PM,57.2,37.4,48,29.85,9.0,NW,26.5,34.5,N/A,,Clear,320,2013-09-25 21:15:00
2:35 PM,57.2,37.4,48,29.85,10.0,NW,26.5,32.2,N/A,,Clear,320,2013-09-25 21:35:00
2:55 PM,57.2,37.4,48,29.84,9.0,NW,23.0,35.7,N/A,,Clear,310,2013-09-25 21:55:00
3:15 PM,57.2,37.4,48,29.84,10.0,NW,20.7,31.1,N/A,,Clear,320,2013-09-25 22:15:00
3:35 PM,57.2,35.6,44,29.83,9.0,NW,23.0,29.9,N/A,,Clear,310,2013-09-25 22:35:00
3:55 PM,57.2,35.6,44,29.82,9.0,NW,20.7,32.2,N/A,,Clear,310,2013-09-25 22:55:00
4:15 PM,57.2,37.4,48,29.82,9.0,NW,24.2,32.2,N/A,,Clear,320,2013-09-25 23:15:00
4:35 PM,57.2,35.6,44,29.81,9.0,NW,23.0,31.1,N/A,,Clear,320,2013-09-25 23:35:00
4:55 PM,55.4,35.6,47,29.81,10.0,NW,24.2,31.1,N/A,,Clear,310,2013-09-25 23:55:00
5:15 PM,55.4,35.6,47,29.81,10.0,WNW,20.7,28.8,N/A,,Clear,300,2013-09-26 00:15:00
5:35 PM,55.4,35.6,47,29.80,10.0,NW,20.7,27.6,N/A,,Scattered Clouds,310,2013-09-26 00:35:00
5:55 PM,53.6,37.4,54,29.79,10.0,NW,23.0,28.8,N/A,,Scattered Clouds,310,2013-09-26 00:55:00
6:15 PM,53.6,37.4,54,29.79,10.0,WNW,18.4,26.5,N/A,,Scattered Clouds,300,2013-09-26 01:15:00
6:35 PM,51.8,35.6,54,29.79,9.0,WNW,21.9,29.9,N/A,,Partly Cloudy,300,2013-09-26 01:35:00
6:55 PM,51.8,37.4,58,29.79,10.0,WNW,19.6,27.6,N/A,,Clear,300,2013-09-26 01:55:00
7:15 PM,50.0,35.6,58,29.78,10.0,WNW,20.7,26.5,N/A,,Clear,300,2013-09-26 02:15:00
7:35 PM,50.0,35.6,58,29.79,10.0,WNW,18.4,24.2,N/A,,Clear,300,2013-09-26 02:35:00
7:55 PM,50.0,35.6,58,29.79,10.0,WNW,21.9,28.8,N/A,,Clear,290,2013-09-26 02:55:00
8:15 PM,50.0,35.6,58,29.79,10.0,WNW,23.0,32.2,N/A,,Partly Cloudy,290,2013-09-26 03:15:00
8:35 PM,50.0,35.6,58,29.79,10.0,WNW,20.7,27.6,N/A,,Partly Cloudy,290,2013-09-26 03:35:00
8:55 PM,50.0,35.6,58,29.79,10.0,WNW,23.0,28.8,N/A,,Scattered Clouds,290,2013-09-26 03:55:00
9:15 PM,50.0,33.8,54,29.79,10.0,WNW,23.0,32.2,N/A,,Overcast,290,2013-09-26 04:15:00
9:35 PM,50.0,32.0,50,29.80,10.0,WNW,21.9,28.8,N/A,,Overcast,290,2013-09-26 04:35:00
9:55 PM,50.0,32.0,50,29.80,10.0,WNW,21.9,28.8,N/A,,Overcast,290,2013-09-26 04:55:00
10:15 PM,50.0,35.6,58,29.80,10.0,NW,24.2,31.1,N/A,,Overcast,310,2013-09-26 05:15:00
10:35 PM,50.0,35.6,58,29.80,10.0,WNW,20.7,29.9,N/A,,Overcast,300,2013-09-26 05:35:00
10:55 PM,50.0,35.6,58,29.80,10.0,WNW,23.0,31.1,N/A,,Overcast,290,2013-09-26 05:55:00
11:15 PM,50.0,33.8,54,29.79,10.0,WNW,24.2,32.2,N/A,,Overcast,300,2013-09-26 06:15:00
11:35 PM,50.0,32.0,50,29.79,10.0,WNW,21.9,28.8,N/A,,Overcast,290,2013-09-26 06:35:00
11:55 PM,48.2,32.0,54,29.79,10.0,WNW,19.6,26.5,N/A,,Overcast,300,2013-09-26 06:55:00